Regional Weather Roundup
Issued by NWS Cleveland, OH

Home | Current Version | Previous Version | Text Only | Print | Product List | Glossary Off
Versions: 1 2 3 4 5 6 7 8 9 10 11 12 13 14 15 16 17 18 19 20 21 22 23 24 25 26 27 28 29 30 31 32 33 34 35 36 37 38 39 40 41 42 43 44 45 46 47 48 49 50

000
ASUS41 KCLE 111302
RWRCLE
OHIO REGIONAL WEATHER ROUNDUP
NATIONAL WEATHER SERVICE CLEVELAND, OH
900 AM EDT FRI JUL 11 2014

NOTE: "FAIR" INDICATES FEW OR NO CLOUDS BELOW 12,000 FEET WITH NO
SIGNIFICANT WEATHER AND/OR OBSTRUCTIONS TO VISIBILITY.

OHZ001>008-015>018-024>027-034-035-043-044-111400-
   NORTHWEST OHIO

CITY           SKY/WX    TMP DP  RH WIND       PRES   REMARKS
DEFIANCE       SUNNY     67  60  78 E6        30.24S
FINDLAY        SUNNY     71  59  65 E7        30.23R
TOLEDO EXPRESS SUNNY     68  62  81 NE3       30.24R
TOLEDO EXEC    SUNNY     71  60  68 NE5       30.25R
LIMA           SUNNY     68  61  78 NE5       30.24R
$$

OHZ009>014-019>023-028>033-038-089-111400-
   NORTHEAST OHIO

CITY           SKY/WX    TMP DP  RH WIND       PRES   REMARKS
CLE-HOPKINS    SUNNY     71  61  70 N6        30.25R
CLE-LAKEFRONT  SUNNY     71  62  73 NE8       30.23R
CUY CO. ARPT   SUNNY     70  64  83 NE12      30.25R
LORAIN-ELYRIA  SUNNY     71  61  70 E5        30.24R
ASHTABULA      SUNNY     69  58  67 CALM      30.25R
AKRON-CANTON   MOSUNNY   70  56  61 NE6       30.24R
WOOSTER        SUNNY     70  56  61 N3        30.25R
MANSFIELD      SUNNY     68  56  65 NE5       30.25R
YOUNGSTOWN     SUNNY     68  59  73 NE3       30.24R
$$

OHZ042-051>053-060>062-070>072-077>081-111400-
  SOUTHWEST OHIO

CITY           SKY/WX    TMP DP  RH WIND       PRES   REMARKS
CINC-COVINGTON MOSUNNY   71  58  63 E5        30.22R
CINC-LUNKEN    SUNNY     68  60  75 CALM      30.23R
HAMILTON       SUNNY     69  59  70 CALM      30.23R
DAYTON         MOSUNNY   70  61  73 CALM      30.24R
WRIGHT-PAT AFB SUNNY     67  60  76 NE2       30.23R
DAYTON GENERAL SUNNY     70  62  76 E3        30.22R
WILMINGTON     SUNNY     69  61  75 E5        30.23R
$$

OHZ036-037-039>041-045>050-054>059-063>069-073>076-082>088-111400-
  CENTRAL AND SOUTHEAST OHIO

CITY           SKY/WX    TMP DP  RH WIND       PRES   REMARKS
COLUMBUS       SUNNY     71  58  63 E3        30.22R
OSU AIRPORT    SUNNY     70  59  68 E3        30.23R
BOLTON FIELD   SUNNY     70  61  73 CALM      30.23R
RICKENBACK AFB SUNNY     70  57  63 E3        30.22R
NEWARK         SUNNY     69  59  70 CALM      30.22R
MARION         SUNNY     69  59  70 NE6       30.23R
LANCASTER      SUNNY     69  61  75 CALM      30.23R
ZANESVILLE     SUNNY     68  60  75 CALM      30.22R
NEW PHILLY     SUNNY     69  61  75 CALM      30.23R
$$


USA.gov is the U.S. government's official web portal to all federal, state and local government web resources and services.